Tracking 30109 objects as of 12-Dec-2024
HD Live streaming from Space Station
objects crossing your sky now

STARLINK-5852

Track STARLINK-5852 now!
10-day predictions
STARLINK-5852 is classified as:


NORAD ID: 55933
Int'l Code: 2023-037V
Perigee: 577.2 km
Apogee: 581.2 km
Inclination: 70.0 °
Period: 96.1 minutes
Semi major axis: 6950 km
RCS: Unknown
Launch date: March 17, 2023
Source: United States (US)
Launch site: AIR FORCE WESTERN TEST RANGE (AFWTR)
Your satellite tracking list
Your tracking list is empty




NASA's NSSDC Master Catalog

Two Line Element Set (TLE):
1 55933U 23037V   24346.42825970 -.00000274  00000-0 -15159-4 0  9996
2 55933  69.9996 347.3854 0002848 270.6814  89.4019 14.98329097 96085
Source of the keplerian elements: AFSPC